Location: Darvault
(48.2697°N, 2.7308°E)
Time: 16:34:42
(UTC+00:00)

ISS - Pass Details

Date: 21 October 2025
Orbit: 415 x 420 km, 51.6° (Epoch: 16 November)

Event Time Altitude Azimuth Distance (km) Brightness Sun altitude
Exits shadow 04:13:21 55° 142° (SE) 512 -3.3 -21.4°
Drops below altitude 10° 04:16:34 10° 72° (ENE) 1,508 0.2 -20.8°
Sets 04:18:42 0° 68° (ENE) 2,377 1.5 -20.5°
